SCP
0 0 0 0 0 0 0 0 0 0 0 0 0 0 0 1 1 1 1 1 1 1 1 1 1 1 1 1 1 1 1 1 1 1 0 0 0 0 0 0 0 1 1 0
0 0 0 0 0 0 0 0 0 0 0 0 0 0 0 1 1 1 1 1 1 1 1 1 1 1 1 1 1 1 1 1 1 0 0 0 0 0 0 1 1 1 1 1
0 0 0 0 0 0 0 0 0 0 0 0 0 0 1 1 1 1 1 1 1 1 1 1 1 1 1 1 1 1 1 1 1 0 0 0 0 0 1 1 1 1 1 1
0 0 0 0 0 0 0 0 0 0 0 0 0 0 1 1 1 1 1 1 1 1 1 1 1 1 1 1 1 1 1 1 1 1 0 0 0 0 1 1 1 1 0 0
0 0 0 0 0 0 0 0 0 0 0 0 0 1 1 1 1 1 1 1 1 1 2 2 2 2 2 2 1 1 1 1 1 1 1 1 1 1 1 1 1 1 0 0
0 0 0 0 0 0 0 0 0 0 0 0 0 1 1 1 1 1 1 1 1 1 2 2 2 2 2 1 1 1 1 1 1 1 1 1 1 1 1 1 1 1 1 1
0 0 0 0 0 0 0 0 0 1 1 1 1 1 1 1 1 1 1 1 1 1 1 2 2 1 1 1 1 1 1 1 1 1 1 1 1 1 1 1 1 1 1 1
0 0 0 0 0 0 0 0 1 1 1 1 1 1 1 1 1 1 1 1 1 1 1 1 1 1 1 1 1 1 1 1 1 1 1 1 1 1 1 1 1 1 1 1
0 0 0 0 0 0 0 1 1 1 1 1 1 1 1 1 1 1 1 1 1 1 1 1 1 1 1 1 1 1 1 1 1 1 1 1 1 1 1 1 1 1 1 1
0 0 0 0 0 1 1 1 1 1 1 1 1 1 1 1 1 1 1 1 1 1 1 1 1 1 1 1 1 1 1 1 1 1 1 1 1 1 1 1 1 1 1 1
0 0 0 0 0 1 1 1 1 1 1 1 1 1 1 1 1 1 1 2 2 2 2 1 1 1 1 1 1 1 1 1 1 2 2 1 1 1 1 1 1 1 1 1
0 0 0 0 0 0 1 1 1 1 1 1 1 1 1 1 1 1 1 2 2 2 2 2 1 1 2 2 2 2 2 2 2 2 2 2 1 1 1 1 1 1 1 1
0 0 0 0 0 0 0 1 1 1 1 1 1 1 1 1 1 1 1 1 2 1 1 1 1 2 2 2 2 2 2 2 2 2 2 2 2 2 1 1 1 0 0 0
0 0 1 0 0 0 0 1 1 1 1 1 1 1 1 1 1 1 1 1 1 1 1 1 1 2 2 2 2 2 2 2 2 3 2 2 2 2 2 1 1 1 0 0
0 0 1 1 0 0 0 1 1 1 1 1 1 1 1 1 1 1 1 1 1 1 1 2 2 2 2 2 2 2 2 2 2 3 3 2 2 2 2 1 1 1 1 0
0 0 0 0 0 0 0 1 1 1 1 1 1 1 1 1 1 1 1 1 1 1 1 2 2 2 2 2 2 2 2 2 2 2 2 2 2 2 2 1 1 1 1 1
0 0 0 0 0 0 0 0 0 1 1 1 1 2 2 2 1 1 1 1 1 1 1 2 2 2 2 1 1 1 1 1 1 1 2 2 1 1 1 1 1 1 1 1
0 0 0 0 0 0 0 0 0 1 1 1 1 1 2 2 1 1 1 1 1 1 1 1 1 1 1 1 1 1 1 1 1 1 1 1 1 1 1 1 1 1 1 1
0 0 0 0 0 0 0 0 0 1 1 1 1 1 1 1 1 1 1 1 1 1 1 1 1 1 1 1 1 1 1 1 1 1 1 1 1 1 1 1 1 1 1 1
0 0 0 0 0 0 0 0 1 1 1 1 1 1 1 1 1 1 1 1 1 1 1 1 1 1 1 1 1 1 1 0 0 0 0 0 0 1 1 1 1 1 1 1
0 0 0 0 0 0 0 0 1 1 1 1 1 1 1 1 1 1 1 0 0 0 0 0 0 0 0 0 0 0 0 0 0 0 0 0 0 0 0 0 1 1 1 1
0 0 0 0 0 0 1 1 1 1 1 1 1 0 1 1 1 0 0 0 0 0 0 0 0 0 0 0 0 0 0 0 0 0 0 0 0 0 0 0 0 0 0 0
0 0 0 0 0 1 1 1 1 1 0 0 0 0 0 0 0 0 0 0 0 0 0 0 0 0 0 0 0 0 0 0 0 0 0 0 0 0 0 0 0 0 0 0
0 0 0 0 0 0 0 0 0 0 0 0 0 0 0 0 0 0 0 0 0 0 0 0 0 0 0 0 0 0 0 0 0 0 0 0 0 0 0 0 0 0 0 0
0 0 0 0 0 0 0 0 0 0 0 0 0 0 0 0 0 0 0 0 0 0 0 0 0 0 0 0 0 0 0 0 0 0 0 0 0 0 0 0 0 0 0 0
0 0 0 0 0 0 0 0 0 0 0 0 0 0 0 0 0 0 0 0 0 0 0 0 0 0 0 0 0 0 0 0 0 0 0 0 0 0 0 0 0 0 0 0
0 0 0 0 0 0 0 0 0 0 0 0 0 0 0 0 0 0 0 0 0 0 0 0 0 0 0 0 0 0 0 0 0 0 0 0 0 0 0 0 0 0 0 0
Wind_Speed
5 6 4 4 5 4 3 7 8 8 8 8 8 9 8 8 10 11 11 11 12 12 11 11 11 10 10 10 9 9 9 8 8 7 6 5 5 4 4 4 4 4 3 3
3 4 3 5 5 5 4 4 5 5 6 6 5 4 5 8 12 13 12 12 12 12 12 12 12 12 11 10 10 9 9 8 7 7 6 6 6 5 4 4 4 4 3 3
3 4 3 5 5 4 3 3 6 6 7 2 4 6 8 10 12 14 15 14 13 12 13 13 14 13 12 12 10 10 9 8 8 8 7 7 7 5 5 5 4 4 4 4
0 2 4 8 3 4 4 1 1 3 4 6 7 7 6 7 10 10 11 12 12 11 11 11 11 11 11 10 10 10 9 8 8 8 7 7 6 6 5 4 4 4 4 4
2 2 5 5 3 2 4 2 0 2 3 4 4 4 1 2 6 9 10 10 10 10 10 10 11 11 11 10 9 9 9 9 9 8 8 7 7 6 5 5 4 4 4 4
3 3 5 6 4 0 6 1 2 1 3 4 4 4 4 4 4 5 6 6 7 8 8 9 10 10 10 9 9 9 9 8 8 8 8 8 7 6 4 4 5 4 4 4
4 4 6 6 5 3 3 6 2 2 2 3 4 6 5 5 5 5 6 6 6 7 8 9 10 11 10 9 9 9 7 7 6 7 7 7 6 5 4 4 4 3 4 4
4 4 8 4 2 2 5 2 0 1 1 1 1 2 2 5 6 7 6 6 6 7 6 6 8 10 10 9 9 7 6 6 6 6 6 6 5 5 5 5 4 4 3 3
6 7 5 2 1 3 2 1 0 0 0 3 3 3 3 4 6 6 6 6 6 6 5 5 7 9 10 9 7 7 7 6 6 5 5 5 6 6 4 4 4 4 4 4
1 3 2 2 2 3 0 2 1 1 3 4 4 4 4 5 5 5 5 5 5 7 6 4 5 6 7 7 7 8 7 7 6 5 4 4 4 4 5 5 5 5 4 4
1 3 2 4 3 1 2 4 4 3 3 4 5 4 5 5 5 4 4 3 5 5 6 5 5 4 5 6 7 7 7 6 6 5 5 4 3 3 5 5 6 6 6 5
4 5 3 4 3 1 3 3 3 4 4 3 5 5 5 5 3 4 4 3 4 4 3 4 4 4 3 5 6 7 6 5 4 4 4 4 3 1 2 3 5 7 8 7
4 3 2 3 3 2 2 3 3 3 3 3 4 6 6 4 3 4 4 4 4 3 3 3 3 3 3 4 5 6 6 5 4 4 4 4 4 4 3 2 3 4 7 9
2 1 1 1 0 1 1 3 3 4 4 5 4 5 5 5 4 4 3 3 3 3 3 3 3 1 2 3 4 4 4 5 5 4 4 4 4 4 4 4 3 3 5 7
3 1 2 1 2 2 2 3 5 4 4 4 4 5 5 5 4 2 2 3 3 3 2 3 2 1 1 2 3 3 2 2 3 3 3 4 4 3 3 4 4 3 2 3
1 1 2 3 2 2 3 3 3 3 3 3 4 4 4 5 4 2 2 3 4 3 2 2 2 2 1 2 2 2 1 2 2 2 2 2 3 3 3 3 3 3 3 3
1 1 1 1 1 1 1 1 2 3 3 3 3 3 4 4 3 2 2 2 3 3 3 3 2 2 2 3 3 2 1 1 2 1 2 2 2 3 3 3 4 4 4 4
4 4 4 4 2 2 1 1 2 3 4 4 4 4 4 4 3 2 2 1 1 1 1 1 1 2 2 2 2 2 2 1 1 1 1 2 2 2 3 3 4 4 4 3
3 3 2 2 3 4 3 1 2 3 3 4 4 4 3 3 2 2 2 2 1 0 2 1 1 2 2 2 2 2 2 2 1 1 2 2 2 2 2 3 3 4 4 3
3 3 3 2 1 3 2 2 3 3 3 4 4 3 2 2 2 2 2 1 2 3 2 1 1 1 2 2 2 2 2 2 2 1 1 2 2 3 3 3 3 3 3 3
4 4 3 2 1 1 2 3 3 3 3 3 4 3 3 2 2 2 2 1 3 2 1 2 1 2 2 2 2 2 2 2 2 2 2 2 2 3 3 3 3 3 3 3
4 4 3 2 1 1 1 2 3 3 3 2 2 3 3 2 2 1 1 2 3 2 1 1 1 2 2 2 2 2 2 2 2 1 1 2 2 2 3 3 2 2 2 2
2 3 3 2 2 2 1 2 2 2 2 2 2 2 2 2 2 2 2 2 1 1 1 1 2 2 3 2 1 2 2 2 2 2 2 2 2 3 2 3 2 2 2 2
2 2 2 2 3 3 2 1 1 1 2 2 2 2 3 2 1 1 2 2 2 1 1 1 1 2 2 1 1 1 1 2 2 2 2 2 2 2 2 2 2 2 1 2
2 2 2 2 2 2 3 2 1 1 1 1 1 0 1 2 3 2 2 2 2 1 0 1 1 1 1 1 1 1 1 2 1 1 1 1 1 1 1 1 2 2 2 2
2 2 2 2 3 3 2 2 1 1 1 1 0 1 1 1 1 1 1 1 1 1 1 1 1 1 0 0 0 0 0 0 0 1 1 1 1 1 1 1 2 2 1 1
1 1 1 1 1 2 2 2 2 1 2 2 1 1 1 1 2 2 2 1 1 1 1 1 1 1 1 1 0 1 1 1 1 1 1 1 1 1 1 1 0 1 1 1
Wind_Direction
219 239 247 263 267 258 216 192 182 206 202 213 200 185 177 165 153 153 161 165 169 172 171 170 172 174 174 174 174 175 174 179 186 184 178 177 178 181 179 179 183 181 172 176
290 278 295 289 263 247 238 201 181 171 222 218 197 172 171 171 162 162 169 176 175 175 174 174 177 177 176 177 177 172 175 184 183 177 176 181 185 184 179 183 181 170 171 176
278 306 7 284 243 208 197 202 172 193 224 172 158 180 186 180 172 173 176 179 180 178 180 180 180 178 177 178 175 174 179 183 181 183 184 189 191 185 186 187 179 178 184 182
210 32 226 243 249 161 144 237 177 175 184 169 183 188 183 168 167 174 175 179 181 179 179 177 173 171 172 170 172 175 179 183 182 183 190 189 186 188 191 186 183 188 195 197
137 201 265 283 277 182 137 293 272 166 181 165 144 94 20 196 167 171 176 176 175 175 175 168 166 165 161 166 172 176 182 186 187 184 186 185 189 193 189 183 187 191 194 198
154 180 225 250 282 49 93 332 306 128 171 162 122 135 235 222 178 164 162 160 164 163 167 166 169 160 156 167 173 185 190 189 185 186 185 189 194 190 182 182 193 190 201 206
183 218 255 263 293 28 132 222 264 115 146 154 161 195 207 176 168 161 157 153 154 159 168 175 168 158 162 169 185 192 185 178 179 190 190 190 187 181 176 179 185 195 208 218
167 204 246 288 18 137 199 225 27 74 97 111 143 137 136 141 148 144 143 143 148 150 164 168 165 161 167 183 189 175 166 172 181 188 189 183 179 183 178 176 184 202 213 231
187 213 241 270 206 225 184 124 86 94 65 104 118 121 126 138 141 141 144 146 147 147 155 160 165 166 176 191 173 161 163 176 182 181 184 179 180 185 183 185 194 207 212 224
158 263 269 307 315 310 304 128 136 126 120 111 120 131 128 127 128 133 141 149 151 142 148 158 164 174 184 175 163 162 172 181 181 182 184 186 186 188 190 197 203 207 210 220
206 249 313 315 298 327 56 57 56 48 76 105 110 107 123 122 127 137 148 148 136 144 161 170 165 174 175 162 159 168 178 183 183 185 183 188 199 203 199 210 207 202 209 211
222 231 197 255 281 29 85 66 62 66 52 65 111 108 102 109 125 136 141 131 124 134 152 165 158 170 172 167 165 168 174 181 183 181 181 180 182 210 237 223 223 219 219 214
221 245 235 259 310 4 111 113 100 106 109 94 94 105 108 112 118 117 118 121 132 144 153 153 147 162 175 166 166 173 181 183 180 182 184 189 189 192 219 273 269 244 235 229
257 316 345 347 35 349 117 118 111 100 95 104 106 100 103 102 100 103 124 147 150 137 133 145 143 177 199 162 155 168 180 188 185 187 188 193 196 200 201 206 235 262 257 245
302 287 212 200 65 56 83 105 101 96 93 97 111 115 114 110 109 119 137 128 114 113 132 142 136 193 236 145 143 155 169 191 195 191 193 197 197 198 204 212 221 237 256 261
275 345 86 88 81 60 58 76 110 130 123 114 120 128 129 132 139 145 148 138 131 149 172 159 164 198 167 143 143 152 178 188 194 198 193 193 193 194 203 214 223 229 237 235
163 243 129 100 78 76 72 69 136 138 127 127 140 133 122 116 112 113 146 174 165 175 179 171 183 183 160 158 160 163 178 182 184 206 209 208 207 207 209 210 217 225 234 224
194 194 181 168 173 180 143 60 111 130 140 143 135 122 120 125 132 147 158 126 97 86 212 193 173 161 163 172 171 162 169 186 179 194 220 213 215 217 214 220 223 228 239 229
176 177 163 155 179 161 148 150 154 147 149 142 137 132 134 138 143 145 130 112 115 205 263 233 170 162 175 185 166 157 162 176 187 205 205 212 219 224 224 228 232 231 233 229
158 147 140 138 132 128 130 141 142 136 142 139 133 127 123 134 140 133 119 133 236 231 222 199 175 184 192 192 174 159 168 184 193 206 217 216 221 229 232 234 235 236 233 228
142 132 127 126 126 139 158 146 136 140 147 146 150 165 167 173 162 149 137 267 283 257 199 197 213 222 210 202 190 182 190 198 202 208 216 225 231 234 238 238 237 239 239 234
142 140 150 159 159 173 151 135 132 138 141 143 162 172 164 167 163 147 222 230 244 233 201 211 230 224 223 218 206 205 210 215 222 220 217 222 225 235 245 248 243 243 245 229
154 160 167 173 174 160 138 135 147 152 159 169 169 177 181 189 176 166 231 254 225 209 210 220 218 220 232 229 223 221 221 216 214 221 227 234 240 238 240 244 247 243 243 230
138 145 168 175 152 129 133 176 163 166 176 183 189 193 177 163 177 203 192 198 196 207 229 242 243 260 249 220 210 216 214 207 211 219 229 231 234 234 230 229 237 241 229 224
143 160 170 150 156 168 179 175 133 128 133 147 162 221 195 177 176 191 183 179 183 177 204 277 274 284 268 207 187 203 212 218 220 209 211 223 232 234 242 243 229 229 228 229
166 182 188 186 184 181 172 154 159 176 159 154 168 179 168 143 144 145 139 129 93 56 32 347 315 318 26 355 286 234 232 256 225 212 213 221 232 251 274 263 249 226 217 222
199 174 150 141 168 169 154 142 147 163 160 151 160 171 142 128 111 104 102 91 76 49 17 8 8 31 41 24 3 17 23 20 35 28 356 346 337 307 274 245 198 100 88 86